Temperature
22 23 23 24 24 25 25 25 25 26 27 26 27 28 28 29 29 29 29 28 28 27 26 25 24 23 22 21 20 20 19 19 19 18 17 17 16 17 16 16 16 16 15 15
22 23 24 25 24 24 24 24 25 26 26 25 26 27 28 29 28 27 27 27 26 26 25 24 24 23 22 21 20 19 19 18 18 18 17 17 17 16 16 16 16 16 15 15
23 24 24 23 23 23 23 24 25 25 26 26 25 26 27 28 27 26 26 25 25 24 23 23 22 22 22 21 20 19 18 18 18 17 17 17 16 16 16 16 16 16 15 14
23 24 23 23 23 23 23 24 24 24 24 26 26 26 27 28 27 26 25 24 23 22 22 21 21 20 20 20 19 19 18 18 17 17 17 16 16 16 16 15 15 15 14 14
23 23 23 23 24 24 24 25 24 24 24 25 25 25 27 27 26 25 23 20 20 19 19 18 18 18 18 18 18 18 17 17 17 16 16 16 16 15 15 15 15 14 14 13
24 24 24 24 24 24 24 24 24 24 25 24 25 25 26 26 24 22 20 18 17 17 16 16 16 16 17 17 17 17 17 16 16 16 15 15 15 15 15 14 14 13 13 12
23 23 24 24 24 24 24 23 23 23 23 24 26 25 25 23 21 20 18 16 15 15 15 15 15 15 15 16 16 16 16 15 15 15 15 15 15 14 14 13 13 12 12 12
22 23 24 24 24 24 23 24 23 23 24 25 25 25 24 21 19 17 16 15 14 14 14 14 14 14 14 14 14 14 15 14 14 14 14 14 14 13 13 12 12 11 11 10
22 23 24 24 25 24 24 24 25 24 24 24 25 24 22 21 19 17 16 14 13 13 13 13 13 13 13 13 13 13 13 13 13 13 13 13 13 12 12 12 11 10 10 9
22 22 23 24 24 24 25 25 24 23 23 23 24 24 24 21 19 17 16 14 12 12 12 12 12 12 12 12 12 12 13 13 12 12 12 12 12 12 11 11 10 9 9 8
22 21 22 23 23 23 23 23 23 24 24 23 23 24 23 21 19 17 14 13 12 11 11 11 11 11 11 11 11 11 11 11 11 11 11 11 11 10 10 9 9 8 8 7
21 21 22 23 24 24 24 24 24 23 23 23 24 23 20 19 18 15 13 12 11 11 10 10 10 10 10 10 10 10 10 10 10 10 10 10 9 9 8 8 8 7 7 6
19 20 20 21 22 23 23 23 23 23 23 23 23 22 18 17 16 14 12 11 10 10 10 10 9 9 9 9 9 9 9 9 9 9 8 8 8 7 7 7 6 6 6 5
18 20 20 21 21 22 22 22 23 23 23 23 23 21 17 16 15 13 12 11 10 10 9 9 9 9 8 8 8 8 8 8 8 7 7 7 7 6 6 6 5 5 5 4
18 19 20 20 21 21 21 21 22 22 22 22 22 21 19 16 15 13 11 10 10 9 9 8 8 8 7 7 7 7 7 7 7 6 6 6 5 5 5 5 4 4 4 4
18 18 19 19 20 20 20 20 21 20 21 21 21 19 18 15 13 12 11 10 9 8 8 7 7 7 7 6 6 6 6 6 6 5 5 5 4 4 4 4 3 3 3 3
18 17 18 19 20 19 19 19 19 19 20 19 19 18 16 14 12 11 10 9 8 7 7 7 6 6 6 6 6 5 5 5 5 5 4 4 4 4 3 3 3 3 2 2
16 17 18 18 18 17 18 18 18 17 17 17 17 16 14 11 9 9 9 8 7 7 6 6 6 6 5 5 5 5 4 4 4 4 4 3 3 3 3 2 2 2 2 1
16 16 17 17 17 18 17 16 16 16 15 15 14 13 10 9 8 7 7 7 6 6 6 5 5 5 5 4 4 4 4 4 4 3 3 3 3 3 2 2 2 2 1 1
16 16 16 16 16 16 15 15 15 16 14 13 12 11 10 10 11 7 6 6 6 5 5 5 5 4 4 4 4 4 4 4 4 3 3 3 3 2 2 2 2 1 1 1
16 16 16 16 15 15 13 14 15 14 12 12 11 11 10 10 9 6 5 5 5 5 5 4 4 4 4 4 4 4 4 4 3 3 3 3 2 2 2 2 1 1 1 1
15 15 15 15 14 13 12 14 13 11 11 11 10 9 8 6 6 5 5 5 4 4 4 4 4 4 4 4 4 4 4 3 3 3 3 3 2 2 2 2 1 1 1 1
15 14 14 13 13 11 11 10 10 10 10 10 9 8 7 6 5 5 4 4 4 4 4 4 4 4 4 4 4 4 4 4 3 3 3 3 2 2 2 2 2 1 1 1
15 14 14 14 13 12 11 10 10 9 9 9 8 7 7 5 5 4 4 4 4 4 4 4 4 4 4 4 4 4 4 4 4 3 3 3 2 2 2 2 2 1 1 1
14 14 14 14 13 12 10 9 9 8 8 8 7 7 6 5 5 5 4 4 4 5 4 5 5 5 4 4 4 4 4 4 4 3 3 3 3 3 2 2 1 1 0 -0
14 14 14 13 12 12 10 8 8 7 7 7 6 6 5 5 5 5 5 5 5 5 5 5 5 5 5 4 4 4 4 4 4 4 4 4 3 3 3 2 1 1 -0 -0
Wind_Speed
12 13 14 14 15 11 6 9 10 8 4 8 12 13 11 9 8 7 7 7 7 8 8 8 11 14 15 16 17 17 17 16 14 12 11 9 7 6 5 4 4 3 3 3
12 17 14 11 11 13 12 12 11 9 7 8 11 13 13 10 8 6 6 6 7 7 6 5 8 11 14 16 17 17 18 17 16 12 10 8 8 6 5 5 5 5 4 4
17 7 11 12 13 14 16 15 13 10 8 10 11 15 14 10 6 3 3 5 6 7 7 5 4 6 10 13 15 15 16 16 16 14 11 9 7 5 5 5 4 4 4 4
14 9 9 13 14 14 14 13 12 12 12 11 9 12 11 9 7 2 3 5 7 7 7 6 4 1 3 6 9 12 14 14 15 15 14 14 10 8 6 6 5 6 6 5
10 12 13 14 14 15 12 9 11 11 12 13 11 11 10 8 7 2 6 8 10 10 9 8 7 6 5 4 5 9 11 12 13 13 14 12 9 7 7 7 9 7 7 6
10 9 11 12 12 13 9 8 8 10 11 15 15 12 10 4 2 3 6 9 10 10 10 11 11 11 10 9 8 9 10 10 10 10 10 9 10 10 10 9 8 7 6 6
11 11 11 10 11 13 13 11 9 11 11 12 9 10 4 7 6 5 7 9 10 11 11 12 13 13 13 13 12 11 12 11 10 10 8 8 9 10 10 9 9 8 7 7
9 10 12 12 14 12 16 17 12 9 11 9 9 9 6 8 8 9 10 10 11 12 13 14 14 14 14 15 14 14 14 13 12 12 11 10 10 8 8 9 9 9 8 8
6 5 7 10 12 14 14 16 16 13 11 9 8 5 7 8 9 10 11 12 12 12 13 14 15 15 15 15 15 15 15 15 14 13 13 12 11 11 12 11 11 9 9 8
5 6 5 6 9 13 13 12 10 13 13 13 12 12 9 13 11 10 11 12 12 12 13 14 14 14 14 14 15 15 16 16 15 14 13 12 13 13 12 12 11 11 10 9
7 7 6 7 9 11 12 12 12 13 13 13 13 6 6 11 11 11 12 12 12 12 12 12 13 13 14 14 15 15 15 16 15 15 14 14 13 13 13 12 11 10 10 9
2 5 8 7 5 6 11 13 14 13 13 13 14 2 7 9 11 13 14 13 12 13 12 12 13 13 14 15 15 15 14 15 14 14 14 14 14 13 13 12 11 10 10 9
4 4 7 8 7 7 8 8 10 11 11 12 15 4 9 10 12 13 14 14 13 13 12 12 12 13 13 13 13 13 13 13 13 13 14 14 13 13 12 12 11 10 9 9
4 4 7 8 3 4 6 6 7 10 11 12 11 5 10 11 12 13 13 13 13 12 12 12 12 12 12 12 12 12 12 12 12 12 13 13 12 12 11 10 10 9 8 8
5 4 3 3 2 2 3 4 4 7 8 8 4 5 10 11 12 12 13 13 13 12 12 12 12 11 11 11 11 11 11 11 11 12 12 12 11 10 10 10 9 8 7 7
5 3 4 4 3 3 4 3 3 3 4 4 2 2 7 10 11 11 12 12 12 12 12 12 11 11 11 10 10 10 10 10 10 11 11 10 10 9 9 8 8 7 6 5
4 4 6 7 5 7 8 3 4 3 3 3 4 2 10 11 10 10 11 12 12 12 12 11 11 10 10 9 10 10 10 10 10 11 10 9 8 8 7 7 6 6 5 4
5 5 5 6 6 9 2 5 4 3 4 5 4 7 10 13 12 11 10 12 12 12 11 11 10 10 10 10 10 10 10 10 10 9 8 8 7 7 6 6 6 5 4 3
3 4 5 5 7 6 4 3 5 4 3 6 7 11 14 15 13 10 10 11 12 12 11 10 10 10 10 10 10 10 10 9 9 8 8 7 6 6 6 5 5 4 3 3
1 4 6 6 6 4 4 6 6 5 1 6 6 9 10 8 4 5 8 11 12 11 10 10 10 11 10 9 9 10 9 8 8 8 7 6 6 6 5 5 4 4 3 4
2 3 5 6 5 1 8 9 6 3 3 4 5 7 6 4 8 11 11 12 12 12 11 11 10 10 9 8 8 9 8 8 7 7 6 6 5 5 4 4 3 3 3 4
4 4 3 3 3 2 10 6 5 5 3 4 6 9 12 14 15 14 13 12 12 12 11 10 10 10 8 8 7 8 8 7 6 6 6 5 4 4 3 3 3 3 4 3
3 4 4 3 3 3 5 5 4 3 3 4 7 11 14 15 14 14 13 12 12 12 11 10 10 10 8 7 6 8 7 5 4 4 4 4 3 3 3 3 3 3 3 4
1 2 3 2 1 2 3 4 5 5 5 5 8 11 14 15 15 14 13 12 11 11 10 9 9 9 8 7 7 6 5 3 3 3 3 2 2 2 3 3 4 5 5 6
4 3 4 3 1 1 3 4 5 6 7 8 10 12 14 16 15 15 13 12 11 10 9 8 8 8 8 7 6 5 4 3 3 2 2 2 2 3 3 3 5 6 7 7
3 4 5 3 3 2 3 5 5 7 8 9 12 13 13 14 15 14 13 11 11 10 9 8 8 8 7 6 6 5 4 3 2 1 2 2 3 3 3 3 3 5 4 4
Wind_Direction
190 208 215 213 219 241 241 233 224 223 234 255 246 249 252 258 262 263 264 266 263 259 256 240 221 212 205 200 196 193 192 186 182 179 175 170 168 159 147 141 149 172 197 208
195 223 226 225 221 229 231 235 237 238 234 258 260 259 255 254 252 268 287 295 294 291 287 266 233 213 207 203 200 195 193 186 183 177 170 169 157 154 161 160 158 161 190 190
215 221 212 212 211 219 228 235 242 250 250 245 259 254 239 227 229 250 308 323 322 318 316 309 267 227 212 206 202 198 193 185 178 163 155 147 141 147 159 159 147 132 140 135
228 216 198 209 215 217 229 230 243 249 253 244 227 255 218 211 201 179 5 2 360 356 355 357 3 0 207 203 196 191 183 176 166 161 163 164 167 170 166 150 130 113 104 110
217 213 209 217 219 218 236 230 234 243 248 257 234 248 233 195 207 120 40 25 18 18 23 28 34 52 68 100 145 155 155 153 157 163 164 166 158 148 138 131 125 121 112 109
230 208 218 224 221 218 226 224 230 241 243 242 236 236 232 177 144 66 49 37 32 35 43 49 53 61 67 78 99 119 126 130 139 143 147 150 145 139 135 133 132 124 112 105
218 213 214 224 217 207 213 219 221 219 221 236 211 224 208 97 84 78 69 56 47 50 54 55 55 58 60 65 75 88 96 98 104 108 107 116 123 125 127 129 127 123 114 107
217 215 205 212 221 210 212 222 232 237 232 222 189 221 129 106 103 95 85 76 65 60 58 56 55 56 57 60 66 75 80 81 83 87 88 90 97 105 108 110 115 114 112 110
229 224 196 213 221 225 215 223 239 256 261 255 214 160 133 133 123 108 97 85 74 66 61 58 56 57 58 60 63 71 77 79 80 84 88 89 92 96 102 105 107 107 109 111
264 256 231 216 219 223 236 229 229 237 243 242 233 217 194 164 144 123 106 94 84 74 67 61 59 59 60 64 68 69 73 76 77 79 82 86 88 93 99 101 101 101 101 103
260 253 230 206 217 214 212 222 228 238 246 249 245 221 107 147 143 129 111 100 91 82 73 68 66 64 66 68 70 71 73 75 76 78 81 83 85 88 92 94 95 97 99 101
283 259 250 233 231 248 225 228 226 236 238 245 262 213 107 132 133 125 115 106 97 90 84 78 74 71 69 68 69 70 72 75 77 80 83 84 86 87 88 90 91 94 94 95
322 255 245 221 202 206 222 229 236 242 254 249 251 206 124 127 125 121 120 115 109 102 95 88 81 75 72 72 72 72 73 75 79 83 86 85 85 85 86 87 87 88 89 88
295 272 273 274 259 199 213 220 232 241 247 248 251 175 154 148 139 131 125 121 115 109 103 96 90 84 80 78 77 77 76 79 82 83 84 82 80 82 84 84 82 82 84 84
328 266 270 302 315 244 228 239 241 251 274 274 258 173 165 158 145 135 127 121 113 107 102 99 96 93 89 85 82 82 81 80 85 87 85 83 83 83 83 81 79 78 77 79
343 289 266 251 244 252 250 260 263 276 290 283 236 143 117 126 125 121 120 117 111 107 103 101 98 96 93 91 90 90 87 87 89 89 88 86 85 84 84 84 81 79 77 77
312 294 270 254 250 258 247 308 310 297 323 296 275 144 131 125 113 112 112 111 108 107 103 100 97 95 95 95 97 96 96 95 92 91 90 90 90 88 87 86 83 81 77 69
292 288 268 266 259 248 71 50 16 351 7 3 44 113 121 107 92 79 90 106 107 106 105 105 104 101 99 99 98 99 98 96 94 95 95 94 93 90 85 81 77 69 58 46
266 277 272 265 255 244 126 46 356 327 17 38 92 109 111 115 98 72 72 90 100 102 104 105 106 107 107 107 108 106 103 102 102 100 98 95 91 88 85 78 69 55 39 28
217 250 258 258 265 264 62 13 338 291 136 64 103 126 139 152 139 108 101 102 102 104 106 107 109 109 108 112 115 112 110 108 103 98 93 88 83 78 73 68 55 47 28 15
291 271 264 266 260 56 22 337 312 291 53 62 106 122 125 77 91 117 115 110 109 109 111 113 113 109 110 114 112 107 103 98 98 97 90 82 77 75 65 57 44 26 12 10
325 319 315 305 277 41 10 5 26 28 29 80 105 109 106 106 111 116 117 116 116 117 117 118 113 108 109 111 111 105 98 100 103 99 91 80 64 52 55 39 20 1 348 349
336 352 344 360 20 48 37 46 42 30 53 79 107 118 122 123 124 122 121 120 121 120 118 117 114 112 110 108 102 97 97 98 99 98 86 72 58 47 25 3 359 349 346 353
318 332 308 318 93 74 56 62 56 54 68 88 116 128 131 129 129 127 125 123 122 120 119 118 115 112 106 101 94 89 85 81 86 85 75 55 32 32 32 359 3 3 3 0
305 299 292 292 37 108 92 62 68 82 94 106 117 125 131 132 130 128 126 127 125 121 117 115 109 106 104 100 91 82 73 63 65 68 45 22 28 28 15 28 32 13 35 23
272 286 297 341 34 358 80 90 97 104 106 114 120 121 124 128 128 129 129 127 123 120 118 112 109 107 104 99 90 75 59 42 23 11 5 4 15 14 3 19 93 90 51 106
Height
1498 1497 1494 1491 1492 1489 1490 1490 1490 1488 1487 1490 1487 1484 1481 1482 1483 1483 1483 1484 1485 1486 1489 1491 1494 1496 1499 1502 1505 1508 1512 1515 1519 1523 1526 1530 1533 1535 1538 1541 1542 1545 1546 1547
1496 1492 1487 1488 1490 1493 1493 1495 1492 1488 1488 1490 1486 1484 1480 1480 1481 1483 1483 1484 1484 1485 1486 1488 1490 1492 1494 1497 1500 1503 1506 1510 1514 1518 1522 1525 1529 1531 1534 1536 1537 1538 1539 1541
1486 1482 1484 1489 1492 1495 1493 1492 1489 1488 1485 1485 1487 1484 1477 1477 1480 1482 1484 1484 1484 1485 1485 1486 1487 1489 1491 1493 1495 1499 1502 1506 1510 1513 1517 1521 1524 1527 1530 1532 1533 1533 1535 1536
1482 1481 1485 1488 1488 1489 1490 1485 1487 1488 1489 1481 1482 1484 1471 1471 1475 1480 1483 1484 1485 1485 1485 1485 1485 1485 1487 1489 1492 1495 1499 1503 1506 1509 1513 1516 1519 1523 1525 1527 1528 1529 1531 1533
1479 1479 1483 1485 1482 1484 1482 1480 1483 1484 1485 1484 1480 1486 1470 1469 1474 1480 1485 1488 1488 1487 1486 1485 1484 1484 1484 1485 1488 1492 1496 1499 1503 1507 1510 1514 1517 1519 1521 1523 1524 1526 1528 1529
1473 1476 1477 1477 1477 1479 1479 1483 1483 1483 1481 1489 1477 1480 1473 1468 1477 1483 1488 1491 1490 1489 1488 1486 1485 1484 1484 1486 1488 1491 1494 1498 1502 1505 1508 1511 1514 1516 1518 1520 1523 1524 1525 1526
1475 1473 1474 1475 1476 1477 1480 1485 1489 1488 1485 1479 1466 1475 1471 1478 1484 1488 1492 1493 1493 1492 1490 1489 1488 1487 1487 1488 1490 1492 1495 1498 1501 1505 1508 1510 1513 1515 1517 1519 1521 1523 1524 1525
1476 1474 1469 1470 1472 1473 1476 1477 1483 1484 1477 1467 1468 1470 1473 1481 1488 1491 1494 1495 1495 1495 1494 1493 1492 1491 1491 1491 1493 1495 1497 1500 1502 1505 1508 1510 1512 1514 1516 1518 1520 1522 1523 1525
1470 1470 1464 1465 1466 1467 1470 1470 1464 1469 1468 1470 1463 1467 1479 1482 1488 1492 1495 1497 1498 1498 1498 1497 1496 1495 1495 1496 1497 1498 1500 1502 1504 1507 1509 1511 1513 1515 1516 1518 1520 1521 1523 1525
1469 1473 1464 1463 1465 1465 1463 1462 1467 1472 1479 1479 1466 1465 1465 1478 1486 1492 1496 1499 1501 1502 1501 1501 1501 1500 1500 1501 1502 1503 1504 1506 1508 1510 1511 1513 1515 1516 1518 1520 1521 1523 1524 1526
1471 1474 1467 1464 1465 1463 1466 1466 1466 1464 1462 1470 1471 1464 1464 1474 1484 1491 1497 1501 1503 1504 1505 1505 1505 1505 1505 1506 1506 1507 1508 1510 1511 1513 1514 1515 1517 1518 1520 1521 1523 1524 1526 1527
1474 1471 1468 1462 1459 1458 1458 1459 1462 1469 1468 1464 1464 1471 1474 1478 1485 1492 1498 1502 1504 1506 1507 1508 1509 1509 1510 1510 1511 1512 1513 1514 1515 1516 1517 1518 1520 1521 1522 1524 1525 1526 1527 1528
1477 1475 1474 1468 1466 1462 1460 1459 1458 1459 1460 1461 1464 1471 1480 1484 1489 1494 1498 1503 1505 1508 1509 1511 1512 1513 1513 1514 1515 1516 1517 1518 1519 1520 1521 1522 1523 1524 1525 1526 1527 1527 1528 1529
1481 1475 1473 1471 1463 1461 1463 1462 1460 1461 1461 1459 1458 1468 1480 1485 1490 1496 1500 1503 1506 1509 1511 1513 1514 1516 1517 1518 1519 1520 1520 1521 1522 1523 1523 1524 1525 1526 1527 1527 1528 1528 1529 1529
1480 1474 1471 1468 1465 1463 1464 1464 1463 1463 1460 1460 1459 1466 1475 1484 1490 1496 1500 1504 1508 1511 1513 1515 1516 1518 1519 1520 1521 1522 1523 1524 1525 1525 1526 1526 1527 1528 1528 1529 1529 1529 1529 1530
1482 1479 1474 1472 1468 1467 1468 1466 1466 1466 1465 1463 1465 1473 1478 1486 1492 1498 1502 1506 1510 1513 1515 1517 1519 1520 1521 1522 1523 1524 1525 1526 1527 1527 1528 1529 1529 1530 1530 1530 1530 1530 1530 1530
1482 1481 1478 1473 1469 1470 1472 1471 1471 1470 1469 1471 1471 1477 1484 1491 1497 1501 1505 1508 1511 1515 1517 1519 1521 1522 1523 1524 1526 1527 1528 1529 1529 1530 1530 1531 1531 1531 1532 1532 1531 1531 1531 1531
1487 1483 1479 1474 1476 1483 1478 1477 1478 1478 1479 1479 1480 1484 1490 1497 1503 1506 1508 1511 1514 1516 1519 1521 1522 1524 1525 1527 1527 1529 1530 1531 1531 1532 1533 1533 1533 1533 1533 1533 1533 1532 1532 1531
1488 1485 1481 1478 1476 1474 1479 1481 1482 1482 1484 1488 1488 1493 1498 1502 1505 1511 1513 1514 1516 1518 1520 1522 1524 1526 1527 1529 1530 1531 1532 1533 1534 1534 1535 1535 1535 1535 1535 1534 1534 1533 1532 1531
1487 1485 1483 1481 1484 1482 1488 1487 1487 1486 1489 1494 1495 1498 1501 1503 1505 1515 1517 1517 1519 1521 1523 1525 1526 1528 1530 1531 1532 1533 1534 1535 1536 1537 1537 1537 1537 1536 1536 1535 1534 1533 1532 1531
1486 1484 1483 1482 1484 1483 1493 1491 1487 1491 1498 1499 1499 1501 1503 1505 1508 1515 1518 1520 1521 1523 1525 1527 1529 1531 1532 1534 1535 1536 1537 1537 1538 1538 1539 1538 1538 1537 1536 1535 1534 1533 1532 1530
1490 1488 1487 1486 1488 1495 1498 1493 1496 1502 1501 1501 1502 1504 1506 1509 1513 1516 1519 1522 1524 1526 1528 1530 1532 1533 1535 1537 1537 1538 1538 1539 1539 1540 1539 1539 1538 1538 1537 1535 1534 1533 1532 1530
1492 1494 1492 1494 1499 1501 1501 1502 1503 1503 1503 1503 1505 1507 1509 1512 1516 1519 1522 1525 1527 1529 1531 1533 1535 1536 1538 1539 1539 1540 1540 1541 1541 1540 1540 1539 1539 1538 1537 1536 1534 1533 1531 1530
1494 1496 1494 1494 1496 1501 1502 1503 1504 1504 1505 1505 1507 1508 1511 1514 1518 1521 1524 1527 1530 1532 1534 1536 1537 1539 1540 1541 1541 1541 1542 1541 1541 1541 1540 1540 1539 1538 1537 1535 1534 1533 1531 1529
1496 1496 1494 1494 1498 1500 1503 1504 1505 1506 1506 1507 1509 1511 1513 1516 1520 1523 1527 1530 1532 1535 1537 1538 1540 1541 1542 1542 1543 1543 1543 1542 1542 1541 1541 1540 1539 1538 1537 1535 1533 1532 1530 1528
1496 1496 1495 1496 1500 1500 1504 1506 1506 1507 1508 1510 1511 1514 1517 1520 1523 1526 1530 1533 1535 1537 1539 1540 1542 1543 1544 1544 1544 1544 1544 1543 1542 1542 1541 1540 1539 1538 1536 1535 1533 1530 1529 1526